sat.trackr.live / text

‹ back to catalog

STARLINK-35191

NORAD 65594 · 2025-207C

PAYLOAD ACTIVE UNKNOWN

§ Identity

Operator
Country
US
Launch date
2025-09-13
Launch site
AFWTR
Launch vehicle
Mass (kg)
RCS (m²)

Purposes: comms

External: N2YO · Heavens-Above · Gunter

§ Orbital elements

Epoch: 2026-05-25T04:59:24.811584Z

Period
95.63 min
Inclination
97.4536°
Eccentricity
0.0001314
Mean motion
15.05744496 rev/d
Perigee alt
548.3 km
Apogee alt
550.1 km
Semi-major
6,927.4 km
B*
3.1724e-3
RAAN
213.6946°
Arg perigee
118.8788°
Mean anomaly
241.2571°
Rev number
3,960

§ Raw data

STARLINK-351911 65594U 25207C   26145.20792606  .00046128  00000+0  31724-2 0  99942 65594  97.4536 213.6946 0001314 118.8788 241.2571 15.05744496 39601

JSON: /api/v1/satellites/65594 · /tle

For live sub-satellite position, see the globe view (requires WebGL).

§ Visibility from observer

Set your observer location to see the next 7 days of passes ≥ 10°. The values pass through the URL so the page stays shareable.

No JS? Fill the form by hand. The geolocation button needs JavaScript.